IRIDIUM 119

Last updated on Sun Jun 21 2026 00:03:14 GMT+0000 (Coordinated Universal Time)

1 42959U 17061E 26171.33604563 .00000164 00000+0 51358-4 0 9997 2 42959 86.3967 23.9331 0002191 84.0903 276.0543 14.34219640455261
UTC large
Height (km)
Speed (km/s)
/
Latitude / Longitude
Inclination (degrees)
Orbital Period (minutes)
Azimuth
Elevation
Range (km)
Doppler Factor

Next 0 passes for location: London (51.5072 / 0.1276)

No passes found over London.
IRIDIUM 119